Location: Bad Rothenbrunn
(47.2167°N, 11.2167°E)
Time: 04:41:50
(UTC+00:00)

Resurs 1-3 - Pass Details

Date: 03 March 2021
Orbit: 629 x 633 km, 97.9° (Epoch: 22 April)

Event Time Altitude Azimuth Distance (km) Brightness Sun altitude
Exits shadow 19:38:48 65° 306° (NW) 702 3.9 -26.8°
Drops below altitude 10° 19:42:44 10° 343° (NNW) 2,027 6.6 -27.4°
Sets 19:44:57 0° 345° (NNW) 2,941 7.5 -27.7°
